TimeEST,TemperatureF,Dew PointF,Humidity,Sea Level PressureIn,VisibilityMPH,Wind Direction,Wind SpeedMPH,Gust SpeedMPH,PrecipitationIn,Events,Conditions,WindDirDegrees,DateUTC
12:15 AM,35.6,21.2,56,30.37,10.0,Calm,Calm,-,N/A,,Overcast,0,2013-12-26 05:15:00
12:35 AM,35.6,21.2,56,30.36,10.0,Calm,Calm,-,N/A,,Overcast,0,2013-12-26 05:35:00
12:55 AM,35.6,19.4,52,30.36,10.0,Calm,Calm,-,N/A,,Overcast,0,2013-12-26 05:55:00
1:15 AM,35.6,21.2,56,30.35,10.0,Calm,Calm,-,N/A,,Mostly Cloudy,0,2013-12-26 06:15:00
1:35 AM,37.4,21.2,52,30.35,10.0,Calm,Calm,-,N/A,,Overcast,0,2013-12-26 06:35:00
1:55 AM,35.6,26.6,70,30.34,10.0,Calm,Calm,-,N/A,,Overcast,0,2013-12-26 06:55:00
2:15 AM,35.6,23.0,60,30.33,10.0,Calm,Calm,-,N/A,,Overcast,0,2013-12-26 07:15:00
2:35 AM,35.6,23.0,60,30.34,10.0,Calm,Calm,-,N/A,,Overcast,0,2013-12-26 07:35:00
2:55 AM,35.6,24.8,65,30.34,10.0,Calm,Calm,-,N/A,,Overcast,0,2013-12-26 07:55:00
3:15 AM,35.6,23.0,60,30.34,10.0,Calm,Calm,-,N/A,,Mostly Cloudy,0,2013-12-26 08:15:00
3:35 AM,33.8,23.0,65,30.32,10.0,Calm,Calm,-,N/A,,Scattered Clouds,0,2013-12-26 08:35:00
3:55 AM,32.0,24.8,75,30.33,10.0,Calm,Calm,-,N/A,,Clear,0,2013-12-26 08:55:00
4:15 AM,33.8,24.8,70,30.32,10.0,Calm,Calm,-,N/A,,Clear,0,2013-12-26 09:15:00
4:35 AM,32.0,26.6,80,30.32,10.0,Calm,Calm,-,N/A,,Clear,0,2013-12-26 09:35:00
4:55 AM,32.0,26.6,80,30.32,10.0,NNW,3.5,-,N/A,,Clear,330,2013-12-26 09:55:00
5:15 AM,32.0,26.6,80,30.32,10.0,Calm,Calm,-,N/A,,Clear,0,2013-12-26 10:15:00
5:35 AM,32.0,26.6,80,30.31,10.0,Calm,Calm,-,N/A,,Clear,0,2013-12-26 10:35:00
5:55 AM,32.0,26.6,80,30.30,10.0,Calm,Calm,-,N/A,,Clear,0,2013-12-26 10:55:00
6:15 AM,32.0,26.6,80,30.31,10.0,Calm,Calm,-,N/A,,Clear,0,2013-12-26 11:15:00
6:35 AM,32.0,28.4,87,30.30,10.0,Calm,Calm,-,N/A,,Clear,0,2013-12-26 11:35:00
6:55 AM,32.0,28.4,87,30.31,10.0,Calm,Calm,-,N/A,,Scattered Clouds,0,2013-12-26 11:55:00
7:15 AM,32.0,26.6,80,30.32,10.0,North,3.5,-,N/A,,Scattered Clouds,360,2013-12-26 12:15:00
7:35 AM,32.0,26.6,80,30.31,10.0,Calm,Calm,-,N/A,,Clear,0,2013-12-26 12:35:00
7:55 AM,32.0,26.6,80,30.32,10.0,Calm,Calm,-,N/A,,Clear,0,2013-12-26 12:55:00
8:15 AM,32.0,26.6,80,30.32,10.0,Calm,Calm,-,N/A,,Clear,0,2013-12-26 13:15:00
8:35 AM,32.0,26.6,80,30.32,10.0,Calm,Calm,-,N/A,,Clear,0,2013-12-26 13:35:00
8:55 AM,32.0,26.6,80,30.33,10.0,Calm,Calm,-,N/A,,Clear,0,2013-12-26 13:55:00
9:15 AM,33.8,28.4,81,30.33,10.0,Calm,Calm,-,N/A,,Clear,0,2013-12-26 14:15:00
9:35 AM,35.6,26.6,70,30.33,10.0,Calm,Calm,-,N/A,,Clear,0,2013-12-26 14:35:00
9:55 AM,37.4,23.0,56,30.35,10.0,Calm,Calm,-,N/A,,Clear,0,2013-12-26 14:55:00
10:15 AM,37.4,21.2,52,30.34,10.0,Calm,Calm,-,N/A,,Clear,0,2013-12-26 15:15:00
10:35 AM,41.0,19.4,42,30.35,10.0,WSW,4.6,-,N/A,,Clear,240,2013-12-26 15:35:00
10:55 AM,42.8,19.4,39,30.35,10.0,West,3.5,-,N/A,,Clear,280,2013-12-26 15:55:00
11:15 AM,42.8,21.2,42,30.34,10.0,West,3.5,-,N/A,,Clear,260,2013-12-26 16:15:00
11:35 AM,42.8,21.2,42,30.34,10.0,Calm,Calm,-,N/A,,Clear,0,2013-12-26 16:35:00
11:55 AM,44.6,21.2,39,30.32,10.0,Calm,Calm,-,N/A,,Clear,0,2013-12-26 16:55:00
12:15 PM,46.4,23.0,40,30.31,10.0,NW,4.6,-,N/A,,Clear,320,2013-12-26 17:15:00
12:35 PM,48.2,23.0,37,30.30,10.0,Calm,Calm,-,N/A,,Clear,0,2013-12-26 17:35:00
12:55 PM,50.0,23.0,35,30.29,10.0,ENE,3.5,-,N/A,,Clear,60,2013-12-26 17:55:00
1:15 PM,51.8,24.8,35,30.28,10.0,Calm,Calm,-,N/A,,Clear,0,2013-12-26 18:15:00
1:35 PM,51.8,23.0,33,30.27,10.0,Calm,Calm,-,N/A,,Clear,0,2013-12-26 18:35:00
1:55 PM,51.8,23.0,33,30.26,10.0,Calm,Calm,-,N/A,,Clear,0,2013-12-26 18:55:00
2:15 PM,53.6,24.8,33,30.25,10.0,Calm,Calm,-,N/A,,Clear,0,2013-12-26 19:15:00
2:35 PM,53.6,26.6,35,30.25,10.0,Calm,Calm,-,N/A,,Clear,0,2013-12-26 19:35:00
2:55 PM,55.4,24.8,31,30.24,10.0,Calm,Calm,-,N/A,,Clear,0,2013-12-26 19:55:00
3:15 PM,55.4,24.8,31,30.24,10.0,WNW,3.5,-,N/A,,Clear,290,2013-12-26 20:15:00
3:35 PM,55.4,26.6,33,30.24,10.0,Calm,Calm,-,N/A,,Clear,0,2013-12-26 20:35:00
3:55 PM,55.4,26.6,33,30.23,10.0,West,3.5,-,N/A,,Clear,260,2013-12-26 20:55:00
4:15 PM,55.4,26.6,33,30.23,10.0,Calm,Calm,-,N/A,,Clear,0,2013-12-26 21:15:00
4:35 PM,55.4,26.6,33,30.24,10.0,Calm,Calm,-,N/A,,Clear,0,2013-12-26 21:35:00
4:55 PM,55.4,26.6,33,30.25,10.0,Calm,Calm,-,N/A,,Clear,0,2013-12-26 21:55:00
5:15 PM,53.6,26.6,35,30.25,10.0,Calm,Calm,-,N/A,,Clear,0,2013-12-26 22:15:00
5:35 PM,53.6,26.6,35,30.25,10.0,Calm,Calm,-,N/A,,Clear,0,2013-12-26 22:35:00
5:55 PM,50.0,26.6,40,30.26,10.0,Calm,Calm,-,N/A,,Clear,0,2013-12-26 22:55:00
6:15 PM,48.2,30.2,50,30.26,10.0,Calm,Calm,-,N/A,,Clear,0,2013-12-26 23:15:00
6:35 PM,44.6,30.2,57,30.27,10.0,Calm,Calm,-,N/A,,Clear,0,2013-12-26 23:35:00
6:55 PM,44.6,30.2,57,30.28,10.0,Calm,Calm,-,N/A,,Clear,0,2013-12-26 23:55:00
7:15 PM,42.8,30.2,61,30.28,10.0,Calm,Calm,-,N/A,,Clear,0,2013-12-27 00:15:00
7:35 PM,42.8,30.2,61,30.29,10.0,Calm,Calm,-,N/A,,Clear,0,2013-12-27 00:35:00
7:55 PM,41.0,30.2,65,30.30,10.0,Calm,Calm,-,N/A,,Clear,0,2013-12-27 00:55:00
8:15 PM,41.0,32.0,70,30.30,10.0,Calm,Calm,-,N/A,,Clear,0,2013-12-27 01:15:00
8:35 PM,39.2,32.0,75,30.31,10.0,Calm,Calm,-,N/A,,Clear,0,2013-12-27 01:35:00
8:55 PM,37.4,30.2,75,30.31,10.0,Calm,Calm,-,N/A,,Clear,0,2013-12-27 01:55:00
9:15 PM,37.4,30.2,75,30.32,10.0,Calm,Calm,-,N/A,,Clear,0,2013-12-27 02:15:00
9:35 PM,35.6,30.2,81,30.32,10.0,Calm,Calm,-,N/A,,Clear,0,2013-12-27 02:35:00
9:55 PM,37.4,30.2,75,30.32,10.0,North,4.6,-,N/A,,Clear,350,2013-12-27 02:55:00
10:15 PM,35.6,32.0,87,30.33,10.0,Calm,Calm,-,N/A,,Clear,0,2013-12-27 03:15:00
10:35 PM,35.6,30.2,81,30.33,10.0,Calm,Calm,-,N/A,,Clear,0,2013-12-27 03:35:00
10:55 PM,35.6,30.2,81,30.34,10.0,North,4.6,-,N/A,,Clear,10,2013-12-27 03:55:00
11:15 PM,35.6,30.2,81,30.34,10.0,NNE,5.8,-,N/A,,Clear,20,2013-12-27 04:15:00
11:35 PM,35.6,30.2,81,30.34,10.0,NNE,6.9,-,N/A,,Clear,30,2013-12-27 04:35:00
11:55 PM,37.4,28.4,70,30.34,10.0,ENE,3.5,-,N/A,,Clear,60,2013-12-27 04:55:00